Weather History for Cancun, Mexico

Change the Weather History Date:

Friday, August 9, 2013

  Actual Average Record
Temperature  
Mean Temperature 78 °F -  
Max Temperature 84 °F 89 °F - ()
Min Temperature 73 °F 73 °F - ()
Cooling Degree Days 14    
Growing Degree Days 28 (Base 50)    
Moisture  
Dew Point 75 °F    
Average Humidity 87    
Maximum Humidity 100    
Minimum Humidity 70    
Precipitation  
Precipitation 0.05 in - - ()
Sea Level Pressure  
Sea Level Pressure 29.90 in    
Wind  
Wind Speed 4 mph ()    
Max Wind Speed 20 mph    
Max Gust Speed -    
Visibility 6.2 miles    
Events Rain , Thunderstorm    
T = Trace of Precipitation, MM = Missing Value Source: Averaged Metar Reports

Daily Weather History Graph

Daily Weather History Graph

Search for Another Location

Airport:

Trip Planner

Search our weather history database for the weather conditions in past years. The results will help you decide how hot, cold, wet, or windy it might be!

Date:

Astronomy

Aug. 09, 2013 Rise Set
Actual Time 6:24 AM CDT 7:21 PM CDT
Civil Twilight 6:01 AM CDT 7:44 PM CDT
Nautical Twilight 5:33 AM CDT 8:11 PM CDT
Astronomical Twilight 5:05 AM CDT 8:40 PM CDT
Moon 8:41 AM CDT (8/9) 9:03 PM CDT (8/9)
Length of Visible Light 13h 43m
Length of Day
12h 56m
Waxing Crescent, 8% of the Moon is Illuminated
Aug 9
Waxing Crescent
Aug 14
First Quarter
Aug 20
Full
Aug 28
Last Quarter
Sep 5
New

Hourly Weather History & Observations

Time (CDT) Temp. Heat Index Dew Point Humidity Pressure Visibility Wind Dir Wind Speed Gust Speed Precip Events Conditions
12:46 AM 78.8 °F - 75.2 °F 89% 29.88 in 7.0 mi SE 4.6 mph - N/A   Mostly Cloudy
1:40 AM 78.8 °F - 75.2 °F 89% 29.88 in 7.0 mi SSE 2.3 mph - N/A   Mostly Cloudy
2:44 AM 77.0 °F - 75.2 °F 94% 29.85 in 7.0 mi Calm Calm - N/A   Mostly Cloudy
3:42 AM 75.2 °F - 73.4 °F 94% 29.84 in 7.0 mi Calm Calm - N/A   Mostly Cloudy
4:40 AM 73.4 °F - 71.6 °F 94% 29.84 in 7.0 mi NW 3.5 mph - N/A   Mostly Cloudy
5:43 AM 75.2 °F - 73.4 °F 94% 29.85 in 7.0 mi NW 3.5 mph - N/A   Mostly Cloudy
6:43 AM 75.2 °F - 73.4 °F 94% 29.86 in 7.0 mi West 2.3 mph - N/A   Scattered Clouds
7:23 AM 75.2 °F - 75.2 °F 100% 29.88 in 3.0 mi South 8.1 mph - N/A Rain Rain
7:48 AM 75.2 °F - 73.4 °F 94% 29.90 in 4.0 mi WSW 2.3 mph - N/A Rain Light Rain
8:35 AM 77.0 °F - 75.2 °F 94% 29.90 in 6.0 mi Calm Calm - N/A   Mostly Cloudy
8:50 AM 77.0 °F - 75.2 °F 94% 29.90 in 5.0 mi Calm Calm - N/A Rain Light Rain
9:44 AM 77.0 °F - 75.2 °F 94% 29.92 in 5.0 mi Calm Calm - N/A Rain Light Rain
10:43 AM 80.6 °F 87.1 °F 77.0 °F 89% 29.93 in 6.0 mi Calm Calm - N/A   Overcast
11:46 AM 84.2 °F 94.1 °F 77.0 °F 79% 29.93 in 6.0 mi Calm Calm - N/A   Overcast
12:45 PM 84.2 °F 92.3 °F 75.2 °F 74% 29.92 in 6.0 mi SSE 19.6 mph - N/A   Mostly Cloudy
1:45 PM 77.0 °F - 73.4 °F 89% 29.92 in 4.0 mi ESE 8.1 mph - N/A Rain Light Rain
2:47 PM 82.4 °F 88.2 °F 73.4 °F 74% 29.90 in 6.0 mi SSE 5.8 mph - N/A   Mostly Cloudy
3:45 PM 82.4 °F 89.5 °F 75.2 °F 79% 29.90 in 6.0 mi SSE 8.1 mph - N/A   Mostly Cloudy
4:42 PM 84.2 °F 92.3 °F 75.2 °F 74% 29.88 in 6.0 mi South 6.9 mph - N/A   Mostly Cloudy
5:43 PM 84.2 °F 90.9 °F 73.4 °F 70% 29.87 in 7.0 mi SE 8.1 mph - N/A   Mostly Cloudy
6:45 PM 82.4 °F 89.5 °F 75.2 °F 79% 29.88 in 7.0 mi ESE 8.1 mph - N/A   Scattered Clouds
7:43 PM 80.6 °F 86.2 °F 75.2 °F 84% 29.89 in 7.0 mi ESE 6.9 mph - N/A   Scattered Clouds
8:44 PM 80.6 °F 86.2 °F 75.2 °F 84% 29.93 in 7.0 mi ESE 5.8 mph - N/A   Scattered Clouds
9:48 PM 80.6 °F 86.2 °F 75.2 °F 84% 29.92 in 7.0 mi ESE 5.8 mph - N/A   Scattered Clouds
10:47 PM 80.6 °F 86.2 °F 75.2 °F 84% 29.97 in 7.0 mi ESE 8.1 mph - N/A   Scattered Clouds
11:46 PM 80.6 °F 86.2 °F 75.2 °F 84% 29.97 in 6.0 mi SE 10.4 mph - N/A Thunderstorm Thunderstorm